Regional Weather Roundup
Issued by NWS

Home | Current Version | Previous Version | Graphics & Text | Print | Product List | Glossary On
Versions: 1 2 3 4 5 6 7 8 9 10 11 12 13 14 15 16 17 18 19 20 21 22 23 24 25 26 27 28 29 30 31 32 33 34 35 36 37 38 39 40 41 42 43 44 45 46 47 48 49 50
000
ASUS43 KDTX 201601
RWRMI
MICHIGAN HOURLY REGIONAL WEATHER ROUNDUP
NATIONAL WEATHER SERVICE DETROIT/PONTIAC MI
1100 AM EST SAT JAN 20 2018

NOTE: "FAIR" INDICATES FEW OR NO CLOUDS BELOW 12,000 FEET WITH NO
SIGNIFICANT WEATHER AND/OR OBSTRUCTION TO VISIBILITY.

MIZ047>049-052>055-059>063-066>070-074>076-081>083-201700-
SOUTHEAST LOWER MICHIGAN

CITY           SKY/WX    TMP DP  RH WIND       PRES   REMARKS
ADRIAN         FAIR      34  26  72 W10       29.97R WCI  26
ALMA           FAIR      39  32  75 SW7       29.89R WCI  34
ANN ARBOR      FAIR      35  27  72 S12       29.94R WCI  27
BAD AXE        FAIR      38  30  74 W8        29.88R WCI  32
CARO           FAIR      38  30  72 SW12      29.88R WCI  31
DETROIT CITY   FAIR      38  26  62 W12       29.93R WCI  30
DETROIT        PTSUNNY   37  26  64 SW16      29.94S WCI  28
FLINT          FAIR      37  27  67 SW10      29.91R WCI  30
GROSSE ILE     FAIR      37  27  67 W13G22    29.95R WCI  28
HILLSDALE      FAIR      36  27  69 SW10      29.94R WCI  28
HOWELL         FAIR      37  29  73 SW8       29.91R WCI  30

CITY           SKY/WX    TMP DP  RH WIND       PRES   REMARKS
JACKSON        FAIR      37  27  67 SW14      29.93R WCI  28
LAMBERTVILLE   FAIR      36  26  67 SW13G20   29.98R WCI  28
LANSING        FAIR      36  28  73 SW14      29.92R WCI  27
LAPEER         FAIR      38  28  64 W10       29.90R WCI  32
MONROE         FAIR      36  25  66 SW15G22   29.95S WCI  26
MT. CLEMENS    MOSUNNY   39  25  56 SW12      29.91R WCI  32
PONTIAC        PTSUNNY   38  28  67 W13       29.90R WCI  30
PORT HOPE        N/A     39  30  70 W9        29.85R WCI  33
PORT HURON     FAIR      39  25  56 SW8       29.91R WCI  34
TRI CITIES     FAIR      38  32  79 SW9       29.89R WCI  31
MIDLAND        FAIR      41  31  67 W5        29.88R
TROY           FAIR      38  27  62 SW7       29.93R WCI  33
SAGINAW HB     FAIR      36  30  80 SW10      29.89R WCI  28
$$
MIZ043>046-050>051-056>058-064>065-071>073-077>080-201700-
SOUTHWEST LOWER MICHIGAN

CITY           SKY/WX    TMP DP  RH WIND       PRES   REMARKS
BATTLE CREEK   FAIR      35  28  75 SW13      29.93R WCI  26
BENTON HARBOR  FAIR      38  28  67 SW15      29.95R WCI  29
BIG RAPIDS     FAIR      39  29  66 SW6       29.86R WCI  35
COLDWATER      FAIR      35  28  76 SW8       29.95R WCI  28
FREMONT        FAIR      40  28  63 SW6       29.88R
HOLLAND        FAIR      39  31  72 SW14      29.93R WCI  31
GRAND RAPIDS   PTSUNNY   38  30  73 SW13      29.91R WCI  30
IONIA          FAIR      37  29  73 SW10      29.90R WCI  30
KALAMAZOO      FAIR      37  28  70 SW7       29.94R WCI  32
LUDINGTON      FAIR      37  34  87 SW5       29.88R WCI  34
MARSHALL       FAIR      36  27  70 SW9G16    29.93R WCI  29
MOUNT PLEASANT FAIR      41  30  65 W8        29.87R
MUSKEGON       PTSUNNY   41  33  73 S13       29.91R
SOUTH HAVEN    FAIR      39  29  69 SW10G17   29.94R WCI  32
$$
MIZ016>042-201700-
NORTHERN LOWER MICHIGAN

CITY           SKY/WX    TMP DP  RH WIND       PRES   REMARKS
ALPENA         FAIR      40  31  70 W8G16     29.82R WCI  34
BEAVER ISLAND  FAIR      40  31  70 W5        29.82R
BELLAIRE       FAIR      35  32  87 S3        29.85R
CADILLAC       FAIR      35  32  88 SW6       29.83R WCI  30
CHARLEVOIX     FAIR      39  32  77 W8        29.87R WCI  33
FRANKFORT      FAIR      39  34  80 W6        29.87R
GAYLORD        FAIR      34  31  88 W7        29.81R WCI  28
GRAYLING       FAIR      34  29  80 W6        29.84R WCI  29
HARBOR SPRINGS FAIR      36  32  86 SW6       29.82R WCI  31
HOUGHTON LAKE  FAIR      35  29  78 W5        29.84R WCI  31
MANISTEE       FAIR      36  33  89 CALM      29.88R
OSCODA         FAIR      36  28  74 SW7G17    29.84R WCI  30
PELLSTON       FAIR      39  30  70 W10       29.81R WCI  32
ROGERS CITY    FAIR      40  31  69 W8        29.82R
TRAVERSE CITY  PTSUNNY   38  32  79 W6        29.84R WCI  33
$$
MIZ007>008-015-201700-
EASTERN UPPER MICHIGAN

CITY           SKY/WX    TMP DP  RH WIND       PRES   REMARKS
KINROSS        CLOUDY    38  31  76 NW13      29.78R WCI  30
MACKINAC ISLAN FAIR      34  29  83 SW7       29.80R WCI  28
NEWBERRY       FAIR      37  32  85 W7        29.79R WCI  31
S. S. MARIE    CLOUDY    39  32  76 NW9       29.77R WCI  33
MUNISING         N/A     36  31  82 CALM      29.79R
$$
MIZ004>006-011>014-085-201700-
CENTRAL UPPER MICHIGAN

CITY           SKY/WX    TMP DP  RH WIND       PRES   REMARKS
ESCANABA       FAIR      37  29  72 W8        29.84R WCI  31
MENOMINEE      FAIR      38  34  85 CALM      29.87R
SAWYER-GWINN   SUNNY     34  27  75 SW6       29.80R WCI  29
$$
MIZ001>003-009>011-084-201700-
WESTERN UPPER MICHIGAN

CITY           SKY/WX    TMP DP  RH WIND       PRES   REMARKS
IRON MOUNTAIN  FAIR      32  27  81 W7        29.83R WCI  26
HOUGHTON       FAIR      36  29  75 W16       29.76R WCI  26
COPPER HARBOR    N/A     39  31  72 NW9       29.77R WCI  33
IRONWOOD       FAIR      34  29  82 SW6       29.83R WCI  29
$$

ABBREVIATIONS USED IN REMARKS
   TC - TEMPERATURE IN CELSIUS
  WCI - WIND CHILL INDEX
   HX - HEAT INDEX
  VSB - VISIBILITY




USA.gov is the U.S. government's official web portal to all federal, state and local government web resources and services.